| time (UTC) | temp F | wind direction | speed MPH | gust MPH | rain 1hr in | rain 24hr in | rain mn in | humidity % | barometer mb |
| 20260507094104 | 54 | 286 | 1.0 | 3.0 | 0.00 | 0.28 | 0.01 | 82 | 1009.4 |
| 20260507094055 | 54 | 288 | 0.0 | 3.0 | 0.00 | 0.28 | 0.01 | 82 | 1009.5 |
| 20260507093039 | 55 | 264 | 0.0 | 2.0 | 0.00 | 0.28 | 0.01 | 83 | 1009.4 |
| 20260507092537 | 55 | 221 | 0.0 | 3.0 | 0.00 | 0.28 | 0.01 | 83 | 1009.4 |
| 20260507092037 | 54 | 148 | 0.0 | 3.0 | 0.00 | 0.28 | 0.01 | 83 | 1009.3 |
| 20260507091536 | 55 | 329 | 0.0 | 2.0 | 0.00 | 0.28 | 0.01 | 84 | 1009.0 |
| 20260507091033 | 55 | 329 | 0.0 | 2.0 | 0.00 | 0.28 | 0.01 | 85 | 1009.0 |
| 20260507090811 | 55 | 329 | 0.0 | 2.0 | 0.00 | 0.28 | 0.01 | 85 | 1009.1 |
| 20260507090313 | 55 | 327 | 0.0 | 1.0 | 0.00 | 0.28 | 0.01 | 85 | 1009.1 |
| 20260507085531 | 55 | 329 | 0.0 | 1.0 | 0.00 | 0.28 | 0.01 | 86 | 1009.1 |
| 20260507085031 | 55 | 331 | 0.0 | 1.0 | 0.00 | 0.28 | 0.01 | 86 | 1009.2 |
| 20260507084556 | 55 | 329 | 0.0 | 0.0 | 0.00 | 0.28 | 0.01 | 87 | 1009.1 |
| 20260507084547 | 55 | 331 | 0.0 | 1.0 | 0.00 | 0.28 | 0.01 | 87 | 1009.2 |
| 20260507083533 | 55 | 329 | 0.0 | 3.0 | 0.00 | 0.28 | 0.01 | 87 | 1009.0 |
| 20260507083311 | 55 | 329 | 0.0 | 3.0 | 0.00 | 0.28 | 0.01 | 87 | 1009.1 |
| 20260507082531 | 55 | 0 | 0.0 | 2.0 | 0.00 | 0.28 | 0.01 | 87 | 1009.4 |
| 20260507082034 | 55 | 0 | 0.0 | 2.0 | 0.00 | 0.28 | 0.01 | 87 | 1009.1 |
| 20260507081531 | 55 | 4 | 0.0 | 1.0 | 0.00 | 0.28 | 0.01 | 87 | 1009.0 |
| 20260507081031 | 55 | 0 | 0.0 | 1.0 | 0.00 | 0.28 | 0.01 | 87 | 1009.0 |
| 20260507080532 | 55 | 6 | 0.0 | 1.0 | 0.00 | 0.28 | 0.01 | 87 | 1008.7 |
| 20260507080033 | 55 | 6 | 0.0 | 1.0 | 0.00 | 0.28 | 0.01 | 87 | 1008.6 |
| 20260507075812 | 55 | 6 | 0.0 | 1.0 | 0.00 | 0.28 | 0.01 | 87 | 1008.5 |
| 20260507075033 | 55 | 21 | 0.0 | 2.0 | 0.00 | 0.28 | 0.01 | 87 | 1008.4 |
| 20260507074532 | 55 | 107 | 0.0 | 2.0 | 0.00 | 0.28 | 0.01 | 87 | 1008.6 |
| 20260507074033 | 55 | 255 | 0.0 | 2.0 | 0.00 | 0.28 | 0.01 | 87 | 1008.6 |
| 20260507073533 | 55 | 255 | 0.0 | 3.0 | 0.00 | 0.28 | 0.01 | 87 | 1008.7 |
| 20260507073309 | 55 | 252 | 0.0 | 3.0 | 0.00 | 0.28 | 0.01 | 87 | 1008.4 |
| 20260507072531 | 55 | 320 | 1.0 | 3.0 | 0.00 | 0.28 | 0.01 | 88 | 1008.4 |
| 20260507072031 | 55 | 323 | 0.0 | 3.0 | 0.00 | 0.28 | 0.01 | 87 | 1008.3 |
| 20260507071532 | 55 | 257 | 0.0 | 3.0 | 0.00 | 0.28 | 0.01 | 88 | 1008.4 |
| 20260507071032 | 55 | 257 | 0.0 | 3.0 | 0.00 | 0.28 | 0.01 | 88 | 1008.5 |
| 20260507070810 | 55 | 261 | 0.0 | 2.0 | 0.00 | 0.28 | 0.01 | 88 | 1008.3 |
| 20260507070311 | 55 | 268 | 0.0 | 4.0 | 0.00 | 0.28 | 0.01 | 89 | 1008.4 |
| 20260507065811 | 55 | 274 | 0.0 | 4.0 | 0.00 | 0.28 | 0.01 | 89 | 1008.5 |
| 20260507065031 | 55 | 345 | 0.0 | 4.0 | 0.00 | 0.28 | 0.01 | 90 | 1008.4 |
| 20260507064530 | 56 | 230 | 1.0 | 4.0 | 0.00 | 0.28 | 0.01 | 90 | 1008.5 |
| 20260507064311 | 56 | 319 | 0.0 | 1.0 | 0.01 | 0.28 | 0.01 | 91 | 1008.5 |
| 20260507063532 | 56 | 319 | 0.0 | 1.0 | 0.01 | 0.28 | 0.01 | 91 | 1008.5 |
| 20260507063312 | 56 | 319 | 0.0 | 2.0 | 0.01 | 0.28 | 0.01 | 91 | 1008.5 |
| 20260507062532 | 56 | 314 | 0.0 | 2.0 | 0.01 | 0.28 | 0.01 | 91 | 1008.6 |
| 20260507062031 | 56 | 330 | 0.0 | 2.0 | 0.01 | 0.28 | 0.01 | 91 | 1008.7 |
| 20260507061531 | 56 | 351 | 0.0 | 3.0 | 0.01 | 0.28 | 0.01 | 91 | 1008.6 |
| 20260507061032 | 56 | 18 | 0.0 | 3.0 | 0.01 | 0.28 | 0.01 | 91 | 1008.3 |
| 20260507060810 | 56 | 259 | 0.0 | 2.0 | 0.01 | 0.28 | 0.01 | 91 | 1008.3 |
| 20260507060059 | 56 | 264 | 1.0 | 3.0 | 0.01 | 0.27 | 0.01 | 90 | 1008.4 |
| 20260507060052 | 56 | 30 | 0.0 | 3.0 | 0.01 | 0.27 | 0.01 | 91 | 1008.4 |
| 20260507055030 | 56 | 288 | 0.0 | 2.0 | 0.01 | 0.27 | 0.01 | 90 | 1008.6 |
| 20260507054531 | 56 | 285 | 1.0 | 3.0 | 0.01 | 0.27 | 0.01 | 90 | 1008.7 |
| 20260507054032 | 56 | 186 | 1.0 | 3.0 | 0.00 | 0.27 | 0.00 | 90 | 1008.5 |
| 20260507053532 | 57 | 317 | 1.0 | 3.0 | 0.00 | 0.27 | 0.00 | 89 | 1008.6 |
| 20260507053032 | 57 | 54 | 1.0 | 3.0 | 0.00 | 0.27 | 0.00 | 89 | 1008.7 |
| 20260507052530 | 57 | 45 | 1.0 | 3.0 | 0.00 | 0.27 | 0.00 | 89 | 1008.5 |
| 20260507052031 | 57 | 6 | 1.0 | 3.0 | 0.00 | 0.27 | 0.00 | 89 | 1008.7 |
| 20260507051531 | 57 | 295 | 1.0 | 3.0 | 0.00 | 0.27 | 0.00 | 89 | 1008.5 |
| 20260507051312 | 57 | 257 | 1.0 | 4.0 | 0.00 | 0.27 | 0.00 | 89 | 1008.3 |
| 20260507050532 | 57 | 73 | 1.0 | 4.0 | 0.00 | 0.27 | 0.00 | 88 | 1008.2 |
| 20260507050310 | 58 | 66 | 2.0 | 4.0 | 0.00 | 0.27 | 0.00 | 88 | 1008.2 |
| 20260507045533 | 58 | 244 | 1.0 | 3.0 | 0.00 | 0.27 | 0.00 | 88 | 1008.8 |
| 20260507045031 | 58 | 257 | 0.0 | 4.0 | 0.00 | 0.27 | 0.00 | 88 | 1008.8 |
| 20260507044532 | 58 | 61 | 1.0 | 4.0 | 0.00 | 0.27 | 0.00 | 87 | 1008.5 |
| 20260507044032 | 58 | 97 | 1.0 | 3.0 | 0.00 | 0.27 | 0.00 | 87 | 1008.6 |
| 20260507043531 | 59 | 245 | 0.0 | 2.0 | 0.00 | 0.27 | 0.00 | 86 | 1008.8 |
| 20260507043031 | 59 | 245 | 1.0 | 4.0 | 0.00 | 0.27 | 0.00 | 85 | 1008.7 |
| 20260507042531 | 59 | 237 | 1.0 | 4.0 | 0.00 | 0.27 | 0.00 | 85 | 1008.6 |
| 20260507042032 | 60 | 16 | 1.0 | 5.0 | 0.00 | 0.27 | 0.00 | 84 | 1008.9 |
| 20260507041531 | 60 | 200 | 0.0 | 5.0 | 0.00 | 0.27 | 0.00 | 84 | 1008.8 |
| 20260507041032 | 60 | 261 | 1.0 | 5.0 | 0.00 | 0.27 | 0.00 | 84 | 1008.6 |
| 20260507040531 | 60 | 350 | 0.0 | 1.0 | 0.00 | 0.27 | 0.00 | 84 | 1008.6 |
| 20260507040032 | 60 | 17 | 0.0 | 2.0 | 0.00 | 0.27 | 0.00 | 84 | 1008.4 |
| 20260507035811 | 60 | 18 | 1.0 | 2.0 | 0.00 | 0.27 | 0.27 | 84 | 1008.2 |
| 20260507035032 | 60 | 16 | 0.0 | 2.0 | 0.00 | 0.27 | 0.27 | 84 | 1008.1 |
| 20260507034531 | 60 | 13 | 0.0 | 3.0 | 0.00 | 0.27 | 0.27 | 84 | 1008.1 |
| 20260507034309 | 61 | 17 | 0.0 | 4.0 | 0.00 | 0.27 | 0.27 | 82 | 1008.0 |
| 20260507033525 | 61 | 262 | 1.0 | 6.0 | 0.00 | 0.27 | 0.27 | 81 | 1008.2 |
| 20260507033026 | 62 | 285 | 2.0 | 6.0 | 0.00 | 0.27 | 0.27 | 80 | 1008.4 |
| 20260507032525 | 62 | 212 | 1.0 | 6.0 | 0.00 | 0.27 | 0.27 | 79 | 1008.0 |
| 20260507032024 | 62 | 334 | 2.0 | 6.0 | 0.00 | 0.27 | 0.27 | 78 | 1008.4 |
| 20260507031523 | 62 | 306 | 0.0 | 2.0 | 0.00 | 0.27 | 0.27 | 79 | 1008.3 |
| 20260507031023 | 62 | 250 | 0.0 | 4.0 | 0.00 | 0.27 | 0.27 | 79 | 1008.3 |
| 20260507030800 | 62 | 313 | 1.0 | 4.0 | 0.00 | 0.27 | 0.27 | 79 | 1008.2 |
| 20260507030011 | 63 | 69 | 0.0 | 3.0 | 0.00 | 0.27 | 0.27 | 79 | 1007.9 |
| 20260507025750 | 63 | 55 | 0.0 | 4.0 | 0.00 | 0.27 | 0.27 | 79 | 1007.5 |
| 20260507025013 | 63 | 54 | 2.0 | 4.0 | 0.00 | 0.27 | 0.27 | 79 | 1007.3 |
| 20260507024511 | 63 | 109 | 2.0 | 9.0 | 0.00 | 0.27 | 0.27 | 79 | 1007.5 |
| 20260507024010 | 63 | 89 | 3.0 | 9.0 | 0.00 | 0.27 | 0.27 | 80 | 1008.0 |
| 20260507023745 | 63 | 102 | 1.0 | 7.0 | 0.00 | 0.27 | 0.27 | 80 | 1007.9 |
| 20260507023010 | 63 | 1 | 3.0 | 7.0 | 0.00 | 0.27 | 0.27 | 81 | 1007.7 |
| 20260507022510 | 64 | 13 | 3.0 | 6.0 | 0.00 | 0.27 | 0.27 | 83 | 1007.5 |
| 20260507022009 | 64 | 144 | 2.0 | 5.0 | 0.00 | 0.27 | 0.27 | 84 | 1007.5 |
| 20260507021506 | 64 | 37 | 0.0 | 4.0 | 0.00 | 0.27 | 0.27 | 84 | 1007.4 |
| 20260507021005 | 65 | 345 | 1.0 | 4.0 | 0.00 | 0.27 | 0.27 | 85 | 1007.3 |
| 20260507020502 | 65 | 288 | 1.0 | 3.0 | 0.00 | 0.27 | 0.27 | 86 | 1007.3 |
| 20260507020030 | 65 | 237 | 1.0 | 3.0 | 0.00 | 0.27 | 0.27 | 87 | 1007.2 |
| 20260507020022 | 65 | 233 | 1.0 | 3.0 | 0.00 | 0.27 | 0.27 | 86 | 1007.3 |
| 20260507015004 | 65 | 288 | 0.0 | 2.0 | 0.00 | 0.27 | 0.27 | 87 | 1007.2 |
| 20260507014529 | 65 | 68 | 0.0 | 2.0 | 0.00 | 0.27 | 0.27 | 88 | 1007.0 |
| 20260507014519 | 65 | 48 | 0.0 | 2.0 | 0.00 | 0.27 | 0.27 | 88 | 1007.1 |
| 20260507013502 | 65 | 61 | 0.0 | 2.0 | 0.00 | 0.27 | 0.27 | 89 | 1007.0 |
| 20260507013002 | 66 | 66 | 0.0 | 3.0 | 0.00 | 0.27 | 0.27 | 90 | 1007.3 |
| 20260507012502 | 66 | 58 | 0.0 | 3.0 | 0.00 | 0.27 | 0.27 | 90 | 1007.3 |
| 20260507012002 | 66 | 58 | 0.0 | 2.0 | 0.00 | 0.27 | 0.27 | 91 | 1007.3 |
| 20260507011503 | 66 | 261 | 0.0 | 1.0 | 0.00 | 0.27 | 0.27 | 91 | 1007.4 |
| 20260507011004 | 66 | 261 | 0.0 | 1.0 | 0.00 | 0.27 | 0.27 | 91 | 1007.4 |
| 20260507010504 | 66 | 261 | 0.0 | 0.0 | 0.00 | 0.27 | 0.27 | 91 | 1007.2 |
| 20260507010244 | 66 | 261 | 0.0 | 0.0 | 0.00 | 0.27 | 0.27 | 91 | 1007.3 |
| 20260507005503 | 66 | 261 | 0.0 | 2.0 | 0.00 | 0.27 | 0.27 | 91 | 1007.2 |
| 20260507005230 | 66 | 261 | 1.0 | 2.0 | 0.00 | 0.27 | 0.27 | 91 | 1007.0 |
| 20260507004447 | 66 | 261 | 0.0 | 0.0 | 0.00 | 0.27 | 0.27 | 90 | 1007.1 |
| 20260507003945 | 66 | 261 | 0.0 | 0.0 | 0.00 | 0.27 | 0.27 | 90 | 1007.1 |
| 20260507003444 | 66 | 261 | 0.0 | 1.0 | 0.00 | 0.27 | 0.27 | 90 | 1007.0 |
| 20260507002944 | 66 | 261 | 0.0 | 1.0 | 0.00 | 0.27 | 0.27 | 90 | 1007.0 |
| 20260507002443 | 66 | 261 | 0.0 | 0.0 | 0.00 | 0.27 | 0.27 | 89 | 1006.9 |
| 20260507001935 | 66 | 261 | 0.0 | 0.0 | 0.00 | 0.27 | 0.27 | 89 | 1006.8 |
| 20260507001433 | 67 | 261 | 0.0 | 0.0 | 0.00 | 0.27 | 0.27 | 88 | 1006.8 |
| 20260507000934 | 67 | 261 | 0.0 | 0.0 | 0.00 | 0.27 | 0.27 | 87 | 1006.7 |
| 20260507000435 | 67 | 261 | 0.0 | 0.0 | 0.00 | 0.27 | 0.27 | 86 | 1006.6 |
| 20260506235932 | 68 | 261 | 0.0 | 0.0 | 0.00 | 0.27 | 0.27 | 85 | 1006.6 |
| 20260506235432 | 68 | 261 | 0.0 | 0.0 | 0.00 | 0.27 | 0.27 | 84 | 1006.7 |
| 20260506235212 | 68 | 261 | 0.0 | 0.0 | 0.00 | 0.27 | 0.27 | 84 | 1006.6 |
| 20260506234432 | 68 | 261 | 0.0 | 0.0 | 0.00 | 0.27 | 0.27 | 83 | 1006.6 |
| 20260506234211 | 68 | 261 | 0.0 | 0.0 | 0.00 | 0.27 | 0.27 | 83 | 1006.6 |
| 20260506233433 | 69 | 261 | 0.0 | 0.0 | 0.00 | 0.27 | 0.27 | 83 | 1006.4 |
| 20260506232932 | 69 | 261 | 0.0 | 0.0 | 0.00 | 0.27 | 0.27 | 82 | 1006.4 |
| 20260506232433 | 69 | 261 | 0.0 | 1.0 | 0.00 | 0.27 | 0.27 | 82 | 1006.2 |
| 20260506232211 | 69 | 261 | 0.0 | 1.0 | 0.00 | 0.27 | 0.27 | 82 | 1006.2 |
| 20260506231433 | 69 | 261 | 0.0 | 1.0 | 0.00 | 0.27 | 0.27 | 82 | 1006.2 |
| 20260506231212 | 69 | 261 | 0.0 | 1.0 | 0.00 | 0.27 | 0.27 | 82 | 1006.1 |
| 20260506230426 | 69 | 261 | 0.0 | 2.0 | 0.00 | 0.27 | 0.27 | 82 | 1006.1 |
| 20260506225926 | 69 | 261 | 0.0 | 3.0 | 0.00 | 0.27 | 0.27 | 81 | 1006.1 |
| 20260506225426 | 69 | 261 | 0.0 | 3.0 | 0.00 | 0.27 | 0.27 | 80 | 1006.1 |
| 20260506224925 | 69 | 254 | 0.0 | 3.0 | 0.00 | 0.27 | 0.27 | 81 | 1006.0 |
| 20260506224425 | 69 | 257 | 0.0 | 3.0 | 0.00 | 0.27 | 0.27 | 82 | 1006.0 |
| 20260506223925 | 69 | 292 | 0.0 | 2.0 | 0.00 | 0.27 | 0.27 | 81 | 1005.9 |
| 20260506223425 | 69 | 292 | 0.0 | 2.0 | 0.00 | 0.27 | 0.27 | 82 | 1005.8 |
| 20260506222923 | 69 | 292 | 0.0 | 3.0 | 0.00 | 0.27 | 0.27 | 81 | 1005.8 |
| 20260506222422 | 69 | 344 | 2.0 | 4.0 | 0.00 | 0.27 | 0.27 | 80 | 1006.0 |
| 20260506221920 | 70 | 275 | 2.0 | 5.0 | 0.00 | 0.27 | 0.27 | 80 | 1005.9 |
| 20260506221419 | 70 | 230 | 2.0 | 5.0 | 0.00 | 0.27 | 0.27 | 79 | 1005.8 |
| 20260506221201 | 70 | 214 | 1.0 | 5.0 | 0.00 | 0.27 | 0.27 | 80 | 1005.8 |
| 20260506220658 | 70 | 252 | 2.0 | 5.0 | 0.00 | 0.27 | 0.27 | 79 | 1005.8 |
| 20260506215919 | 70 | 8 | 1.0 | 5.0 | 0.00 | 0.27 | 0.27 | 79 | 1005.8 |
| 20260506215416 | 70 | 168 | 1.0 | 5.0 | 0.00 | 0.27 | 0.27 | 80 | 1005.8 |
| 20260506214916 | 70 | 94 | 2.0 | 5.0 | 0.00 | 0.27 | 0.27 | 79 | 1005.8 |
| 20260506214416 | 71 | 248 | 2.0 | 5.0 | 0.00 | 0.27 | 0.27 | 79 | 1005.8 |
| 20260506213917 | 71 | 262 | 1.0 | 3.0 | 0.00 | 0.27 | 0.27 | 80 | 1005.8 |
| 20260506213655 | 71 | 226 | 1.0 | 6.0 | 0.00 | 0.27 | 0.27 | 78 | 1005.8 |
| 20260506212915 | 71 | 257 | 1.0 | 6.0 | 0.00 | 0.27 | 0.27 | 79 | 1005.8 |
| 20260506212416 | 71 | 183 | 1.0 | 5.0 | 0.00 | 0.27 | 0.27 | 80 | 1005.8 |
| 20260506212155 | 71 | 235 | 1.0 | 7.0 | 0.00 | 0.27 | 0.27 | 78 | 1005.7 |
| 20260506211416 | 71 | 233 | 2.0 | 7.0 | 0.00 | 0.27 | 0.27 | 77 | 1005.7 |
| 20260506210916 | 71 | 212 | 2.0 | 5.0 | 0.00 | 0.27 | 0.27 | 77 | 1005.8 |
| 20260506210416 | 71 | 288 | 2.0 | 5.0 | 0.00 | 0.27 | 0.27 | 78 | 1005.7 |
| 20260506205937 | 71 | 223 | 3.0 | 6.0 | 0.00 | 0.27 | 0.27 | 79 | 1005.5 |
| 20260506205929 | 71 | 245 | 1.0 | 5.0 | 0.00 | 0.27 | 0.27 | 78 | 1005.5 |
| 20260506204915 | 71 | 220 | 2.0 | 6.0 | 0.00 | 0.27 | 0.27 | 78 | 1005.4 |
| 20260506204415 | 71 | 161 | 2.0 | 5.0 | 0.00 | 0.27 | 0.27 | 79 | 1005.2 |
| 20260506203912 | 71 | 69 | 2.0 | 7.0 | 0.00 | 0.27 | 0.27 | 79 | 1005.4 |
| 20260506203410 | 70 | 224 | 0.0 | 7.0 | 0.00 | 0.27 | 0.27 | 80 | 1005.5 |
| 20260506202910 | 71 | 213 | 2.0 | 4.0 | 0.00 | 0.27 | 0.27 | 78 | 1005.4 |
| 20260506202409 | 71 | 223 | 2.0 | 5.0 | 0.00 | 0.27 | 0.27 | 78 | 1005.3 |
| 20260506201909 | 70 | 265 | 1.0 | 5.0 | 0.00 | 0.27 | 0.27 | 78 | 1005.5 |
| 20260506201435 | 70 | 237 | 3.0 | 5.0 | 0.00 | 0.27 | 0.27 | 79 | 1005.5 |
| 20260506201425 | 70 | 241 | 3.0 | 5.0 | 0.00 | 0.27 | 0.27 | 79 | 1005.4 |
| 20260506200650 | 69 | 235 | 3.0 | 6.0 | 0.00 | 0.27 | 0.27 | 79 | 1005.5 |
| 20260506195907 | 69 | 165 | 2.0 | 9.0 | 0.00 | 0.27 | 0.27 | 80 | 1005.6 |
| 20260506195407 | 69 | 237 | 4.0 | 9.0 | 0.00 | 0.27 | 0.27 | 79 | 1005.5 |
| 20260506194907 | 69 | 217 | 2.0 | 6.0 | 0.00 | 0.27 | 0.27 | 79 | 1005.5 |
| 20260506194407 | 69 | 241 | 3.0 | 6.0 | 0.00 | 0.27 | 0.27 | 79 | 1005.5 |
| 20260506194144 | 69 | 221 | 1.0 | 5.0 | 0.00 | 0.27 | 0.27 | 81 | 1005.6 |
| 20260506193403 | 70 | 262 | 1.0 | 7.0 | 0.00 | 0.27 | 0.27 | 81 | 1005.6 |
| 20260506193142 | 69 | 250 | 2.0 | 7.0 | 0.00 | 0.27 | 0.27 | 78 | 1005.6 |
| 20260506192401 | 70 | 189 | 2.0 | 10.0 | 0.00 | 0.27 | 0.27 | 78 | 1005.6 |
| 20260506191902 | 69 | 192 | 3.0 | 11.0 | 0.00 | 0.27 | 0.27 | 80 | 1005.7 |
| 20260506191357 | 69 | 230 | 4.0 | 11.0 | 0.00 | 0.27 | 0.27 | 80 | 1005.8 |
| 20260506190853 | 69 | 195 | 3.0 | 6.0 | 0.00 | 0.27 | 0.27 | 80 | 1005.6 |
| 20260506190354 | 69 | 214 | 3.0 | 6.0 | 0.00 | 0.27 | 0.27 | 79 | 1005.9 |
| 20260506190137 | 69 | 195 | 2.0 | 6.0 | 0.00 | 0.27 | 0.27 | 82 | 1005.9 |
| 20260506185355 | 68 | 189 | 3.0 | 6.0 | 0.00 | 0.27 | 0.27 | 82 | 1005.7 |
| 20260506185139 | 68 | 293 | 3.0 | 5.0 | 0.00 | 0.27 | 0.27 | 82 | 1005.9 |
| 20260506184633 | 67 | 309 | 2.0 | 9.0 | 0.00 | 0.27 | 0.27 | 82 | 1006.2 |
| 20260506184148 | 67 | 310 | 2.0 | 6.0 | 0.00 | 0.27 | 0.27 | 82 | 1006.2 |
| 20260506183903 | 67 | 227 | 1.0 | 9.0 | 0.00 | 0.27 | 0.27 | 81 | 1006.1 |
| 20260506182842 | 67 | 230 | 2.0 | 6.0 | 0.00 | 0.27 | 0.27 | 82 | 1006.1 |
| 20260506182340 | 67 | 117 | 2.0 | 5.0 | 0.00 | 0.27 | 0.27 | 81 | 1006.2 |
| 20260506181841 | 67 | 203 | 3.0 | 6.0 | 0.00 | 0.27 | 0.27 | 82 | 1006.3 |
| 20260506181341 | 67 | 202 | 3.0 | 10.0 | 0.00 | 0.27 | 0.27 | 81 | 1006.4 |
| 20260506180842 | 67 | 250 | 4.0 | 10.0 | 0.00 | 0.27 | 0.27 | 82 | 1006.4 |
| 20260506180340 | 67 | 296 | 1.0 | 9.0 | 0.00 | 0.27 | 0.27 | 81 | 1006.4 |
| 20260506175832 | 67 | 206 | 3.0 | 7.0 | 0.00 | 0.27 | 0.27 | 80 | 1006.5 |
| 20260506175333 | 67 | 0 | 2.0 | 4.0 | 0.00 | 0.27 | 0.27 | 82 | 1006.3 |
| 20260506175115 | 67 | 159 | 2.0 | 7.0 | 0.00 | 0.27 | 0.27 | 82 | 1006.4 |
| 20260506174332 | 67 | 247 | 3.0 | 7.0 | 0.00 | 0.27 | 0.27 | 83 | 1006.5 |
| 20260506173834 | 66 | 226 | 2.0 | 5.0 | 0.00 | 0.27 | 0.27 | 83 | 1006.5 |
| 20260506173333 | 66 | 323 | 2.0 | 5.0 | 0.00 | 0.27 | 0.27 | 85 | 1006.5 |
| 20260506172832 | 66 | 59 | 2.0 | 10.0 | 0.00 | 0.27 | 0.27 | 84 | 1006.6 |
| 20260506172331 | 65 | 227 | 2.0 | 10.0 | 0.00 | 0.27 | 0.27 | 85 | 1006.7 |
| 20260506172111 | 65 | 244 | 3.0 | 7.0 | 0.00 | 0.27 | 0.27 | 84 | 1006.7 |
| 20260506171331 | 65 | 213 | 3.0 | 7.0 | 0.00 | 0.27 | 0.27 | 85 | 1006.7 |
| 20260506170833 | 65 | 219 | 1.0 | 6.0 | 0.00 | 0.27 | 0.27 | 86 | 1006.7 |
| 20260506170609 | 65 | 224 | 3.0 | 7.0 | 0.00 | 0.27 | 0.27 | 86 | 1006.6 |
| 20260506170112 | 65 | 274 | 2.0 | 10.0 | 0.00 | 0.27 | 0.27 | 86 | 1006.8 |
| 20260506165333 | 65 | 196 | 3.0 | 10.0 | 0.00 | 0.27 | 0.27 | 86 | 1006.8 |
| 20260506164834 | 65 | 248 | 3.0 | 9.0 | 0.00 | 0.27 | 0.27 | 87 | 1006.8 |
| 20260506164330 | 65 | 326 | 3.0 | 9.0 | 0.00 | 0.27 | 0.27 | 86 | 1006.6 |
| 20260506163831 | 65 | 252 | 3.0 | 7.0 | 0.00 | 0.27 | 0.27 | 87 | 1006.6 |
| 20260506163331 | 65 | 220 | 3.0 | 10.0 | 0.00 | 0.27 | 0.27 | 88 | 1006.8 |
| 20260506162831 | 65 | 241 | 4.0 | 10.0 | 0.01 | 0.27 | 0.27 | 89 | 1006.7 |
| 20260506162331 | 65 | 240 | 2.0 | 7.0 | 0.01 | 0.27 | 0.27 | 90 | 1006.8 |
| 20260506161827 | 64 | 300 | 4.0 | 7.0 | 0.01 | 0.27 | 0.27 | 91 | 1006.8 |
| 20260506161327 | 64 | 245 | 2.0 | 6.0 | 0.01 | 0.27 | 0.27 | 92 | 1006.8 |
| 20260506160828 | 63 | 209 | 3.0 | 13.0 | 0.01 | 0.27 | 0.27 | 92 | 1006.7 |
| 20260506160324 | 63 | 158 | 4.0 | 13.0 | 0.02 | 0.27 | 0.27 | 92 | 1006.8 |
| 20260506155825 | 63 | 265 | 3.0 | 5.0 | 0.02 | 0.25 | 0.27 | 93 | 1007.0 |
| 20260506155325 | 63 | 228 | 2.0 | 6.0 | 0.03 | 0.25 | 0.27 | 93 | 1006.8 |
| 20260506155111 | 62 | 331 | 3.0 | 10.0 | 0.03 | 0.25 | 0.27 | 93 | 1006.9 |
| 20260506154603 | 63 | 193 | 4.0 | 11.0 | 0.04 | 0.25 | 0.27 | 94 | 1006.9 |
| 20260506153820 | 62 | 196 | 2.0 | 11.0 | 0.04 | 0.25 | 0.27 | 94 | 1007.0 |
| 20260506153554 | 62 | 233 | 1.0 | 6.0 | 0.05 | 0.25 | 0.27 | 94 | 1006.9 |
| 20260506152815 | 61 | 254 | 2.0 | 9.0 | 0.04 | 0.25 | 0.26 | 94 | 1007.2 |
| 20260506152311 | 62 | 238 | 2.0 | 9.0 | 0.04 | 0.25 | 0.26 | 95 | 1007.3 |
| 20260506151808 | 61 | 259 | 3.0 | 9.0 | 0.04 | 0.25 | 0.26 | 94 | 1007.2 |
| 20260506151308 | 60 | 197 | 2.0 | 6.0 | 0.04 | 0.25 | 0.26 | 94 | 1007.0 |
| 20260506150807 | 60 | 51 | 2.0 | 6.0 | 0.05 | 0.25 | 0.26 | 94 | 1007.2 |
| 20260506150309 | 60 | 240 | 2.0 | 6.0 | 0.04 | 0.25 | 0.25 | 94 | 1007.4 |
| 20260506145807 | 60 | 226 | 2.0 | 6.0 | 0.05 | 0.21 | 0.24 | 94 | 1007.5 |
| 20260506145307 | 60 | 224 | 2.0 | 6.0 | 0.04 | 0.21 | 0.24 | 94 | 1007.5 |
| 20260506144810 | 60 | 274 | 2.0 | 5.0 | 0.05 | 0.21 | 0.24 | 94 | 1007.4 |
| 20260506144549 | 61 | 206 | 1.0 | 5.0 | 0.05 | 0.21 | 0.23 | 94 | 1007.7 |
| 20260506143809 | 60 | 183 | 1.0 | 5.0 | 0.07 | 0.21 | 0.23 | 94 | 1007.7 |
| 20260506143307 | 60 | 244 | 1.0 | 4.0 | 0.08 | 0.21 | 0.22 | 94 | 1007.8 |
| 20260506142807 | 60 | 47 | 0.0 | 5.0 | 0.09 | 0.21 | 0.22 | 94 | 1007.8 |
| 20260506142308 | 60 | 243 | 2.0 | 7.0 | 0.11 | 0.21 | 0.22 | 94 | 1007.9 |
| 20260506141807 | 60 | 230 | 3.0 | 7.0 | 0.13 | 0.21 | 0.22 | 94 | 1007.8 |
| 20260506141306 | 60 | 142 | 2.0 | 5.0 | 0.15 | 0.21 | 0.22 | 94 | 1007.7 |
| 20260506140806 | 60 | 90 | 2.0 | 5.0 | 0.17 | 0.21 | 0.21 | 94 | 1007.7 |
| 20260506140306 | 60 | 134 | 1.0 | 3.0 | 0.18 | 0.21 | 0.21 | 94 | 1007.8 |
| 20260506140047 | 60 | 233 | 1.0 | 5.0 | 0.17 | 0.03 | 0.20 | 94 | 1007.7 |
| 20260506135547 | 60 | 250 | 2.0 | 5.0 | 0.17 | 0.03 | 0.20 | 93 | 1007.6 |
| 20260506135047 | 60 | 55 | 1.0 | 4.0 | 0.16 | 0.03 | 0.19 | 93 | 1007.6 |
| 20260506134306 | 60 | 73 | 2.0 | 4.0 | 0.15 | 0.03 | 0.18 | 93 | 1007.7 |
| 20260506133805 | 60 | 309 | 1.0 | 3.0 | 0.14 | 0.03 | 0.15 | 93 | 1007.7 |
| 20260506133305 | 60 | 220 | 1.0 | 3.0 | 0.12 | 0.03 | 0.14 | 93 | 1008.0 |
| 20260506132806 | 60 | 220 | 1.0 | 3.0 | 0.11 | 0.03 | 0.13 | 93 | 1008.0 |
| 20260506132549 | 60 | 220 | 1.0 | 3.0 | 0.09 | 0.03 | 0.10 | 92 | 1008.1 |
| 20260506132047 | 61 | 188 | 1.0 | 3.0 | 0.07 | 0.03 | 0.08 | 92 | 1008.2 |
| 20260506131304 | 61 | 0 | 1.0 | 3.0 | 0.05 | 0.03 | 0.06 | 92 | 1008.2 |
| 20260506130806 | 61 | 1 | 0.0 | 4.0 | 0.03 | 0.03 | 0.04 | 92 | 1008.4 |
| 20260506130304 | 61 | 329 | 1.0 | 4.0 | 0.03 | 0.03 | 0.03 | 92 | 1008.4 |
| 20260506125805 | 61 | 179 | 0.0 | 2.0 | 0.03 | 0.00 | 0.03 | 92 | 1008.3 |
| 20260506125306 | 61 | 179 | 1.0 | 2.0 | 0.03 | 0.00 | 0.03 | 92 | 1008.1 |
| 20260506124805 | 61 | 178 | 0.0 | 2.0 | 0.03 | 0.00 | 0.03 | 92 | 1007.8 |
| 20260506124305 | 61 | 145 | 1.0 | 2.0 | 0.03 | 0.00 | 0.03 | 91 | 1007.7 |
| 20260506123804 | 61 | 202 | 0.0 | 3.0 | 0.02 | 0.00 | 0.02 | 91 | 1007.6 |
| 20260506123304 | 61 | 202 | 1.0 | 3.0 | 0.02 | 0.00 | 0.02 | 91 | 1007.5 |
| 20260506122805 | 61 | 104 | 0.0 | 3.0 | 0.02 | 0.00 | 0.02 | 90 | 1007.5 |
| 20260506122545 | 61 | 200 | 0.0 | 3.0 | 0.02 | 0.00 | 0.02 | 90 | 1007.4 |
| 20260506121804 | 61 | 82 | 0.0 | 3.0 | 0.02 | 0.00 | 0.02 | 90 | 1007.7 |
| 20260506121303 | 62 | 226 | 0.0 | 3.0 | 0.02 | 0.00 | 0.02 | 89 | 1007.8 |
| 20260506120804 | 62 | 220 | 1.0 | 3.0 | 0.01 | 0.00 | 0.01 | 88 | 1007.8 |
| 20260506120304 | 62 | 176 | 0.0 | 4.0 | 0.00 | 0.00 | 0.00 | 87 | 1008.0 |
| 20260506115804 | 62 | 176 | 0.0 | 5.0 | 0.00 | 0.00 | 0.00 | 85 | 1008.1 |
| 20260506115546 | 63 | 312 | 1.0 | 5.0 | 0.00 | 0.00 | 0.00 | 83 | 1008.1 |
| 20260506114804 | 63 | 202 | 1.0 | 5.0 | 0.00 | 0.00 | 0.00 | 83 | 1008.0 |
| 20260506114302 | 63 | 203 | 1.0 | 5.0 | 0.00 | 0.00 | 0.00 | 82 | 1008.0 |
| 20260506113804 | 63 | 137 | 1.0 | 5.0 | 0.00 | 0.00 | 0.00 | 81 | 1007.9 |
| 20260506113304 | 64 | 261 | 1.0 | 4.0 | 0.00 | 0.00 | 0.00 | 80 | 1007.9 |
| 20260506112802 | 64 | 216 | 1.0 | 5.0 | 0.00 | 0.00 | 0.00 | 79 | 1008.0 |
| 20260506112305 | 64 | 189 | 2.0 | 5.0 | 0.00 | 0.00 | 0.00 | 80 | 1007.8 |
| 20260506111802 | 64 | 62 | 1.0 | 6.0 | 0.00 | 0.00 | 0.00 | 80 | 1007.6 |
| 20260506111544 | 64 | 31 | 2.0 | 6.0 | 0.00 | 0.00 | 0.00 | 79 | 1007.5 |
| 20260506110802 | 64 | 206 | 2.0 | 5.0 | 0.00 | 0.00 | 0.00 | 79 | 1007.5 |
| 20260506110301 | 64 | 49 | 1.0 | 4.0 | 0.00 | 0.00 | 0.00 | 79 | 1007.4 |
| 20260506105803 | 64 | 213 | 1.0 | 3.0 | 0.00 | 0.00 | 0.00 | 79 | 1007.4 |
| 20260506105305 | 64 | 241 | 1.0 | 4.0 | 0.00 | 0.00 | 0.00 | 79 | 1007.4 |
| 20260506104804 | 64 | 186 | 1.0 | 4.0 | 0.00 | 0.00 | 0.00 | 77 | 1007.4 |
| 20260506104302 | 65 | 237 | 2.0 | 10.0 | 0.00 | 0.00 | 0.00 | 76 | 1007.3 |
| 20260506103804 | 65 | 220 | 1.0 | 10.0 | 0.00 | 0.00 | 0.00 | 74 | 1007.3 |
| 20260506103302 | 65 | 226 | 3.0 | 7.0 | 0.00 | 0.00 | 0.00 | 73 | 1007.2 |
| 20260506102805 | 65 | 226 | 1.0 | 5.0 | 0.00 | 0.00 | 0.00 | 73 | 1007.1 |
| 20260506102544 | 65 | 269 | 2.0 | 5.0 | 0.00 | 0.00 | 0.00 | 74 | 1007.1 |
| 20260506101802 | 65 | 265 | 0.0 | 4.0 | 0.00 | 0.00 | 0.00 | 73 | 1007.1 |
| 20260506101302 | 65 | 240 | 2.0 | 6.0 | 0.00 | 0.00 | 0.00 | 73 | 1007.0 |
| 20260506100802 | 65 | 103 | 2.0 | 6.0 | 0.00 | 0.00 | 0.00 | 73 | 1007.1 |
| 20260506100304 | 65 | 262 | 2.0 | 6.0 | 0.00 | 0.00 | 0.00 | 72 | 1007.0 |
| 20260506095802 | 65 | 251 | 2.0 | 6.0 | 0.00 | 0.00 | 0.00 | 72 | 1007.1 |
| 20260506095305 | 65 | 214 | 2.0 | 7.0 | 0.00 | 0.00 | 0.00 | 72 | 1006.9 |
| 20260506094802 | 66 | 228 | 2.0 | 11.0 | 0.00 | 0.00 | 0.00 | 71 | 1007.0 |